[[{"header":{"parameterUnit":"m.s-1","parameterCategory":1,"la1":30.2991,"la2":30.254,"lo1":-89.0895,"lo2":-89.0444,"dy":0.0017,"dx":0.0017,"nx":28,"ny":28,"refTime":"2025-12-15T03:00:00:Z","depth":0,"parameterNumber":2,"parameterNumberName":"U-component_of_WINDS"},"data":[0,0,0,0,0,0,0,0,0,0,0,0,0,0,0,0,0,0,0,0,0,0,0,0,0,0,0,0,0,0,0,0,0,0,0,0,0,0,0,0,0,0,0,0,0,0,0,0,0,0,0,0,0,0,0,0,0,0,-3.7883,-3.7884,0,-3.8014,-3.8015,-3.8017,-3.7969,-3.7966,-3.7963,-3.796,-3.8093,-3.8099,-3.8105,0,0,0,0,0,0,0,0,0,0,0,0,0,-3.759,-3.7595,-3.7882,-3.7884,-3.7886,-3.8014,-3.8015,-3.8017,-3.7969,-3.7966,-3.7962,-3.7959,-3.8091,-3.8098,-3.8106,0,0,0,0,0,0,0,0,0,0,0,0,0,-3.7719,-3.7597,-3.7882,-3.7877,-3.7878,-3.8013,-3.8015,-3.8018,-3.797,-3.7966,-3.7961,-3.7957,-3.8088,-3.8097,-3.8107,-3.8254,0,0,-3.8135,-3.814,0,0,0,0,0,0,0,0,-3.7711,-3.7729,-3.7876,-3.7878,-3.7879,-3.797,-3.7961,-3.8097,-3.7971,-3.7935,-3.796,-3.7955,-3.8055,-3.8067,-3.8102,-3.826,-3.8266,-3.8136,-3.8142,-3.8146,-3.8149,0,0,0,0,0,0,0,-3.7702,-3.7723,-3.7934,-3.7879,-3.788,-3.7868,-3.7882,-3.7986,-3.8018,-3.7938,-3.7935,-3.7951,-3.8055,-3.8093,-3.8104,-3.8267,-3.8136,-3.8144,-3.815,-3.8154,-3.8553,-3.8558,0,0,0,0,0,0,-3.7693,-3.7716,-3.793,-3.7938,-3.7783,-3.7877,-3.7892,-3.7946,-3.8017,-3.8024,-3.7955,-3.7948,-3.8079,-3.8093,-3.8109,-3.8285,-3.8146,-3.8155,-3.816,-3.8548,-3.8554,-3.856,0,0,0,0,0,0,-3.7687,-3.7713,-3.7925,-3.7827,-3.7853,-3.7887,-3.7947,-3.795,-3.7988,-3.803,-3.8035,-3.7987,-3.8076,-3.8096,-3.8218,-3.8289,-3.8159,-3.8168,-3.8542,-3.855,-3.8557,-3.8639,0,0,0,0,0,0,-3.7679,-3.7711,-3.7767,-3.7828,-3.7858,-3.8032,-3.7952,-3.7956,-3.8004,-3.7997,-3.8062,-3.8068,-3.8074,-3.8204,-3.8228,-3.8299,-3.8175,-3.8536,-3.8546,-3.8555,-3.863,-3.8648,-3.8664,0,0,0,0,0,-3.7668,-3.7784,-3.777,-3.7796,-3.7929,-3.8036,-3.8053,-3.8058,-3.801,-3.8067,-3.8094,-3.8066,-3.8278,-3.8217,-3.8243,-3.8319,-3.8532,-3.8543,-3.8554,-3.8622,-3.8645,-3.8663,0,0,0,0,0,0,-3.7729,-3.7792,-3.7777,-3.7916,-3.7972,-3.8028,-3.8099,-3.8082,-3.8151,-3.8142,-3.8144,-3.8159,-3.8286,-3.8315,-3.8246,-3.8465,-3.8398,-3.8414,-3.8441,-3.8462,-3.8479,-3.8468,-3.8183,0,0,0,0,0,-3.7759,-3.7841,-3.7892,-3.801,-3.8039,-3.8065,-3.8112,-3.8111,-3.8168,-3.8191,-3.8227,-3.8283,-3.8362,-3.8414,-3.849,-3.8635,-3.8648,-3.87,-3.8717,-3.8731,-3.8744,-3.8823,-3.8846,-3.8596,-3.8596,-3.8596,0,0,-3.7821,-3.7866,-3.7917,-3.8023,-3.8066,-3.8151,-3.8084,-3.8177,-3.8239,-3.8205,-3.8322,-3.8351,-3.8414,-3.8549,-3.861,-3.8577,-3.8817,-3.8745,-3.8756,-3.8762,-3.8837,-3.886,-3.8881,-3.8604,-3.8602,-3.8601,0,0,-3.7976,-3.8019,-3.8122,-3.8167,-3.8233,-3.825,-3.8275,-3.8335,-3.8353,-3.8472,-3.8447,-3.8522,-3.8659,-3.8705,-3.8746,-3.8922,-3.8898,-3.8946,-3.9033,-3.911,-3.913,-3.9147,-3.9208,-3.923,-3.896,-3.8961,-3.8961,0,-3.8044,-3.8171,-3.8176,-3.8271,-3.8318,-3.8293,-3.8396,-3.844,-3.8527,-3.856,-3.8523,-3.8694,-3.8735,-3.8879,-3.8922,-3.8957,-3.8985,-3.8937,-3.9127,-3.9144,-3.916,-3.9219,-3.9242,-3.8966,-3.8965,-3.8965,-3.8964,0,-3.8251,-3.834,-3.8415,-3.85,-3.8557,-3.8655,-3.8675,-3.8732,-3.8727,-3.8748,-3.887,-3.8918,-3.9003,-3.9038,-3.9034,-3.9182,-3.916,-3.9125,-3.9056,-3.9189,-3.9244,-3.9267,-3.8973,-3.8971,-3.897,-3.8969,0,0,-3.8445,-3.8534,-3.8561,-3.86,-3.8672,-3.8741,-3.8839,-3.8923,-3.897,-3.9033,-3.9114,-3.9232,-3.92,-3.9247,-3.9249,-3.9316,-3.9451,-3.9273,-3.9275,-3.9303,-3.9617,-3.964,-3.9666,-3.9437,-3.9442,-3.9445,-3.9611,0,-3.8604,-3.8777,-3.8785,-3.8942,-3.9023,-3.9002,-3.9087,-3.9141,-3.9164,-3.9236,-3.9262,-3.9344,-3.9298,-3.9326,-3.9392,-3.9421,-3.9514,-3.9409,-3.9512,-3.9515,-3.9494,-3.9695,-3.9721,-3.9874,-3.9632,-3.9636,-3.9639,0,-3.8813,-3.8882,-3.9046,-3.9108,-3.9142,-3.9219,-3.9297,-3.9367,-3.9428,-3.944,-3.9494,-3.9486,-3.9587,-3.9518,-3.9656,-3.9584,-3.9627,-3.9648,-3.9654,-3.9662,-3.9583,-3.9706,-3.9923,-3.9946,-3.9673,-3.967,-3.9668,0,-3.8935,-3.907,-3.9186,-3.922,-3.9295,-3.9349,-3.9383,-3.9439,-3.949,-3.9558,-3.959,-3.967,-3.9713,-3.9774,-3.9788,-3.9737,-3.9926,-3.9858,-3.9938,-3.9938,-3.9976,-3.9973,-4.0201,-4.0008,-4.0008,-4.0008,-4.0007,0,-3.911,-3.9211,-3.9242,-3.9312,-3.9425,-3.9435,-3.9547,-3.9577,-3.9628,-3.9704,-3.9691,-3.9763,-3.9778,-3.9854,-3.9866,-3.9978,-3.9998,-4.0009,-4.0011,-4.0009,-4.0007,-4.0035,-4.0024,-4.0014,-4.0012,-4.0011,-4.001,0,-3.9264,-3.9289,-3.9414,-3.9475,-3.9494,-3.9574,-3.9626,-3.9695,-3.9717,-3.9814,-3.9837,-3.9873,-3.9961,-3.9982,-4.0087,-4.0095,-4.0227,-4.0219,-4.0206,-4.0204,-4.0282,-4.0274,-4.0534,-4.0568,-4.0356,-4.0358,-4.0359,0,-3.9373,-3.9451,-3.9521,-3.9572,-3.9608,-3.969,-3.9742,-3.9755,-3.9809,-3.9886,-3.9945,-4.0032,-4.0101,-4.0243,-4.0277,-4.0358,-4.035,-4.0437,-4.0362,-4.0358,-4.0349,-4.0343,-4.0351,-4.0449,-4.0452,-4.0453,-4.0455,0,-3.9563,-3.9572,-3.9647,-3.9727,-3.9789,-3.9852,-3.9913,-3.9955,-3.9977,-4.0039,-4.0129,-4.0184,-4.0291,-4.0377,-4.0458,-4.0493,-4.0478,-4.0479,-4.0501,-4.0498,-4.0487,-4.0492,-4.0242,-4.0472,-4.047,-4.0469,-4.0468,-4.0467,-3.9696,-3.9764,-3.9825,-3.9909,-3.9956,-4.0014,-4.0081,-4.0113,-4.0188,-4.0277,-4.0282,-4.0379,-4.044,-4.0547,-4.0587,-4.0664,-4.0637,-4.067,-4.0677,-4.0685,-4.069,-4.0477,-4.0679,-4.0678,-4.0678,-4.0677,-4.0677,0,-3.9883,-3.9922,-4.0,-4.0085,-4.0152,-4.0134,-4.0201,-4.0257,-4.0344,-4.0402,-4.0471,-4.0575,-4.0659,-4.0702,-4.0785,-4.0838,-4.0833,-4.0859,-4.0854,-4.0862,-4.071,-4.0682,-4.0862,-4.0862,-4.0862,-4.0862,-4.0862,-4.0862,-3.9988,-4.0102,-4.0118,-4.0255,-4.0293,-4.039,-4.0429,-4.0482,-4.0528,-4.0645,-4.0715,-4.0743,-4.0795,-4.0882,-4.0959,-4.0969,-4.0999,-4.1029,-4.1035,-4.0892,-4.0873,-4.0855,-4.0828,-4.1036,-4.1036,-4.118,-4.1182,-4.1183]},{"header":{"parameterUnit":"m.s-1","parameterCategory":1,"la1":30.2991,"la2":30.254,"lo1":-89.0895,"lo2":-89.0444,"dy":0.0017,"dx":0.0017,"nx":28,"ny":28,"refTime":"2025-12-15T03:00:00:Z","depth":0,"parameterNumber":3,"parameterNumberName":"V-component_of_WINDS"},"data":[0,0,0,0,0,0,0,0,0,0,0,0,0,0,0,0,0,0,0,0,0,0,0,0,0,0,0,0,0,0,0,0,0,0,0,0,0,0,0,0,0,0,0,0,0,0,0,0,0,0,0,0,0,0,0,0,0,0,0.6649,0.6649,0,0.6635,0.6634,0.6634,0.6627,0.6627,0.6627,0.6627,0.6609,0.6608,0.6608,0,0,0,0,0,0,0,0,0,0,0,0,0,0.6668,0.6668,0.6649,0.6649,0.6649,0.6635,0.6634,0.6634,0.6627,0.6627,0.6627,0.6627,0.6609,0.6609,0.6608,0,0,0,0,0,0,0,0,0,0,0,0,0,0.6658,0.6668,0.6649,0.6643,0.6643,0.6635,0.6634,0.6634,0.6627,0.6627,0.6627,0.6627,0.6609,0.6609,0.6608,0.6604,0,0,0.6606,0.6605,0,0,0,0,0,0,0,0,0.6658,0.6657,0.6644,0.6644,0.6643,0.6633,0.6635,0.6624,0.6627,0.6633,0.6627,0.6627,0.6617,0.6615,0.6613,0.6603,0.6602,0.6606,0.6605,0.6605,0.6605,0,0,0,0,0,0,0,0.6659,0.6657,0.6643,0.6644,0.6643,0.6641,0.6639,0.6633,0.6625,0.6632,0.6632,0.663,0.6616,0.6613,0.6612,0.6602,0.6606,0.6605,0.6605,0.6604,0.6589,0.6589,0,0,0,0,0,0,0.6661,0.6658,0.6644,0.6643,0.6651,0.6641,0.6639,0.6636,0.6625,0.6623,0.663,0.663,0.6614,0.6613,0.6611,0.6606,0.6605,0.6604,0.6604,0.6589,0.6589,0.6589,0,0,0,0,0,0,0.6661,0.666,0.6644,0.665,0.6648,0.664,0.6637,0.6636,0.6633,0.6623,0.6622,0.6629,0.6614,0.6612,0.6606,0.6605,0.6604,0.6603,0.6589,0.6589,0.6589,0.6596,0,0,0,0,0,0,0.6662,0.666,0.6659,0.665,0.6648,0.664,0.6637,0.6635,0.6632,0.6631,0.6622,0.662,0.6614,0.6607,0.6605,0.6604,0.6603,0.6589,0.6589,0.6589,0.6595,0.6596,0.6596,0,0,0,0,0,0.6663,0.666,0.6659,0.6657,0.6646,0.664,0.6638,0.6633,0.6632,0.663,0.6624,0.662,0.6606,0.6607,0.6605,0.6603,0.6589,0.6589,0.6589,0.6595,0.6596,0.6596,0,0,0,0,0,0,0.6667,0.6659,0.6657,0.6652,0.6647,0.6639,0.6636,0.6633,0.6627,0.6627,0.6619,0.6617,0.6612,0.6607,0.6608,0.6599,0.6597,0.6597,0.6602,0.6603,0.6603,0.6604,0.6602,0,0,0,0,0,0.6668,0.6664,0.6657,0.6653,0.6651,0.6644,0.6641,0.6637,0.6631,0.6629,0.6622,0.6616,0.661,0.6606,0.66,0.6595,0.6593,0.6593,0.6594,0.6594,0.6593,0.6591,0.6591,0.6589,0.6589,0.6589,0,0,0.6669,0.6664,0.6661,0.6654,0.6649,0.6645,0.6642,0.6637,0.6634,0.6628,0.6622,0.6617,0.6609,0.6604,0.6601,0.6599,0.6594,0.6594,0.6594,0.6594,0.6591,0.6591,0.6591,0.6589,0.6589,0.6589,0,0,0.6668,0.6664,0.6661,0.6657,0.6651,0.6646,0.6646,0.6638,0.6635,0.6629,0.6625,0.662,0.661,0.6605,0.6602,0.6601,0.6597,0.6599,0.6601,0.6598,0.6598,0.6598,0.6598,0.6598,0.6599,0.6599,0.6599,0,0.6669,0.6663,0.6659,0.6655,0.6652,0.6647,0.6644,0.664,0.6632,0.6629,0.6628,0.6617,0.6611,0.6604,0.6605,0.6602,0.66,0.66,0.6599,0.6599,0.6599,0.6598,0.6598,0.6599,0.6599,0.6599,0.6599,0,0.6666,0.6662,0.666,0.6653,0.665,0.6646,0.6641,0.6638,0.6635,0.6631,0.6625,0.6619,0.6612,0.661,0.6607,0.6603,0.6603,0.66,0.6598,0.6599,0.6599,0.6599,0.6599,0.6599,0.6599,0.6599,0,0,0.6666,0.6659,0.6658,0.6655,0.6649,0.6645,0.6641,0.6636,0.6634,0.6628,0.6625,0.6617,0.6616,0.6611,0.6607,0.6605,0.6605,0.6603,0.6603,0.6604,0.6601,0.6603,0.6603,0.6603,0.6603,0.6603,0.6602,0,0.6664,0.6658,0.6654,0.6649,0.6646,0.6642,0.6639,0.6634,0.6631,0.6627,0.6623,0.6617,0.6616,0.6613,0.6611,0.6606,0.6605,0.6606,0.6599,0.6599,0.6601,0.6602,0.6604,0.6603,0.6602,0.6602,0.6602,0,0.6661,0.6657,0.6652,0.6647,0.6645,0.6642,0.6638,0.6634,0.6629,0.6626,0.6623,0.6619,0.6615,0.6614,0.6607,0.6608,0.6606,0.6603,0.6603,0.6601,0.66,0.6601,0.6603,0.6602,0.6601,0.6601,0.6601,0,0.6662,0.6655,0.6652,0.665,0.6643,0.6642,0.6639,0.6634,0.6631,0.6627,0.6625,0.662,0.6617,0.6613,0.6608,0.6607,0.6602,0.66,0.6599,0.66,0.6598,0.6598,0.6599,0.6597,0.6597,0.6597,0.6597,0,0.666,0.6657,0.6652,0.665,0.6646,0.6643,0.6639,0.6636,0.6632,0.6629,0.6625,0.6622,0.6616,0.6612,0.6608,0.6604,0.6603,0.66,0.6599,0.66,0.6601,0.6598,0.6597,0.6597,0.6597,0.6597,0.6597,0,0.6659,0.6656,0.6652,0.6647,0.6646,0.6644,0.6639,0.6637,0.6634,0.663,0.6629,0.6623,0.6619,0.6614,0.6607,0.6605,0.6601,0.6599,0.6602,0.6602,0.6601,0.6601,0.66,0.66,0.6598,0.6598,0.6598,0,0.6658,0.6656,0.6651,0.665,0.6647,0.6644,0.6642,0.6638,0.6635,0.663,0.6628,0.6624,0.662,0.6613,0.6608,0.6603,0.6601,0.6601,0.66,0.6602,0.6601,0.6601,0.6601,0.6601,0.6601,0.6601,0.6601,0,0.6656,0.6655,0.6652,0.6649,0.6646,0.6643,0.664,0.6638,0.6634,0.6631,0.6627,0.6624,0.6619,0.6614,0.6609,0.6606,0.6603,0.6602,0.6602,0.6602,0.6604,0.6603,0.6603,0.6602,0.6602,0.6602,0.6602,0.6602,0.6655,0.6653,0.665,0.6647,0.6645,0.6642,0.664,0.6637,0.6634,0.6629,0.6627,0.6623,0.6619,0.6612,0.6609,0.6605,0.6604,0.6604,0.6603,0.6603,0.6603,0.6606,0.6604,0.6604,0.6604,0.6604,0.6604,0,0.6653,0.6651,0.6648,0.6644,0.6642,0.6641,0.6638,0.6636,0.6632,0.6629,0.6626,0.6621,0.6617,0.6613,0.6609,0.6607,0.6605,0.6606,0.6605,0.6605,0.6605,0.6605,0.6607,0.6607,0.6607,0.6607,0.6607,0.6607,0.6651,0.6648,0.6647,0.6643,0.6641,0.6637,0.6636,0.6633,0.6631,0.6626,0.6623,0.6621,0.6617,0.6613,0.6609,0.6608,0.6606,0.6607,0.6605,0.6605,0.6605,0.6604,0.6605,0.6607,0.6607,0.6606,0.6606,0.6606]}]]